FW9690 Weather Reports


Display with metric or nautical units.
time (UTC)temp
F
wind
direction
speed
MPH
gust
MPH
rain 1hr
in
rain 24hr
in
rain mn
in
humidity
%
barometer
mb
20260506014618 72 307 9.0 12.0 0.00 0.00 0.00 35 985.0
20260506013015 73 309 9.0 13.0 0.00 0.00 0.00 34 984.9
20260506011514 74 305 8.0 13.0 0.00 0.00 0.00 33 984.9
20260506010033 75 296 10.0 13.0 0.00 0.00 0.00 32 984.8
20260506004613 76 267 8.0 13.0 0.00 0.00 0.00 30 984.7
20260506003014 77 268 10.0 17.0 0.00 0.00 0.00 29 984.6
20260506001513 78 244 15.0 21.0 0.00 0.00 0.00 28 984.7
20260506000013 78 244 13.0 23.0 0.00 0.00 0.00 28 984.7
20260505234614 79 234 19.0 35.0 0.00 0.00 0.00 28 984.7
20260505233022 77 275 7.0 20.0 0.00 0.00 0.00 29 984.7
20260505231517 76 216 13.0 22.0 0.00 0.00 0.00 30 984.8
20260505230015 77 223 15.0 25.0 0.00 0.00 0.00 30 985.0
20260505224613 75 212 10.0 15.0 0.00 0.00 0.00 33 985.0
20260505223012 74 226 11.0 23.0 0.00 0.00 0.00 33 985.1
20260505221511 74 225 20.0 25.0 0.00 0.00 0.00 32 985.2
20260505220012 74 230 18.0 25.0 0.00 0.00 0.00 32 985.5
20260505214626 75 246 21.0 31.0 0.00 0.00 0.00 31 985.5
20260505213011 75 242 21.0 30.0 0.00 0.00 0.00 30 985.6
20260505211512 75 242 18.0 29.0 0.00 0.00 0.00 30 985.7
20260505210010 76 248 19.0 27.0 0.00 0.00 0.00 29 985.9
20260505204608 76 244 22.0 30.0 0.00 0.00 0.00 29 985.7
20260505203016 76 235 15.0 22.0 0.00 0.00 0.00 28 985.9
20260505201505 76 236 15.0 22.0 0.00 0.00 0.00 29 986.2
20260505200004 76 257 14.0 22.0 0.00 0.00 0.00 29 986.1
20260505194609 76 233 14.0 24.0 0.00 0.00 0.00 28 986.3
20260505193055 76 241 19.0 25.0 0.00 0.00 0.00 28 986.2
20260505191556 76 251 10.0 18.0 0.00 0.00 0.00 29 986.0
20260505190053 77 244 16.0 29.0 0.00 0.00 0.00 29 986.3
20260505184554 76 261 18.0 27.0 0.00 0.00 0.00 29 986.4
20260505183103 76 263 18.0 27.0 0.00 0.00 0.00 29 986.7
20260505181558 76 286 17.0 27.0 0.00 0.00 0.00 30 986.8
20260505180108 75 259 19.0 31.0 0.00 0.00 0.00 31 986.7
20260505174604 75 279 21.0 29.0 0.00 0.00 0.00 31 986.8
20260505173011 74 279 21.0 31.0 0.00 0.00 0.00 31 986.8
20260505171504 74 259 20.0 31.0 0.00 0.00 0.00 31 986.8
20260505170003 74 269 21.0 29.0 0.00 0.00 0.00 31 986.9
20260505164603 73 251 19.0 24.0 0.00 0.00 0.00 30 986.9
20260505163056 73 252 16.0 25.0 0.00 0.00 0.00 30 987.0
20260505161614 72 259 15.0 21.0 0.00 0.00 0.00 31 987.0
20260505160103 72 255 18.0 26.0 0.00 0.00 0.00 30 987.0
20260505153051 73 270 18.0 26.0 0.00 0.00 0.00 29 986.7
20260505151549 73 289 18.0 26.0 0.00 0.00 0.00 30 986.7
20260505124548 66 279 8.0 11.0 0.00 0.00 0.00 36 985.1
20260505123018 67 254 8.0 11.0 0.00 0.00 0.00 34 985.0
20260505121517 68 252 8.0 13.0 0.00 0.00 0.00 32 984.9
20260505120017 69 271 11.0 15.0 0.00 0.00 0.00 31 984.8
20260505114515 69 280 12.0 16.0 0.00 0.00 0.00 30 984.7
20260505113005 68 271 11.0 14.0 0.00 0.00 0.00 31 984.7
20260505111503 66 259 9.0 12.0 0.00 0.00 0.00 35 984.6
20260505110106 65 272 7.0 9.0 0.00 0.00 0.00 37 984.5
20260505101557 67 254 8.0 9.0 0.00 0.00 0.00 37 984.5
20260505100054 65 246 7.0 9.0 0.00 0.00 0.00 41 984.3
20260505094550 65 223 8.0 15.0 0.00 0.00 0.00 42 984.5
20260505093058 65 275 10.0 11.0 0.00 0.00 0.00 42 984.5
20260505091615 65 226 3.0 9.0 0.00 0.00 0.00 43 984.4
20260505090057 67 284 7.0 9.0 0.00 0.00 0.00 38 984.7
20260505084555 65 257 5.0 8.0 0.00 0.00 0.00 40 984.5
20260505083051 64 267 6.0 10.0 0.00 0.00 0.00 43 984.3
20260505081557 66 268 10.0 11.0 0.00 0.00 0.00 41 984.5
20260505074547 68 250 8.0 10.0 0.00 0.00 0.00 35 984.8
20260505073049 69 254 9.0 13.0 0.00 0.00 0.00 34 985.0
20260505071556 68 246 11.0 13.0 0.00 0.00 0.00 36 985.1
20260505070050 68 248 10.0 11.0 0.00 0.00 0.00 35 985.1
20260505064547 70 248 10.0 13.0 0.00 0.00 0.00 32 985.0
20260505063058 71 238 11.0 14.0 0.00 0.00 0.00 31 985.2
20260505061606 71 238 12.0 15.0 0.00 0.00 0.00 31 985.3
20260505060041 71 228 12.0 16.0 0.00 0.00 0.00 31 985.3
20260505054541 69 227 9.0 14.0 0.00 0.00 0.00 33 985.4
20260505053045 69 259 6.0 9.0 0.00 0.00 0.00 36 985.5
20260505051605 71 279 5.0 11.0 0.00 0.00 0.00 34 985.4
20260505041546 72 248 9.0 12.0 0.00 0.00 0.00 32 985.6
20260505040039 72 242 9.0 11.0 0.00 0.00 0.00 31 985.8
20260505034538 74 230 7.0 10.0 0.00 0.00 0.00 29 985.6
20260505033042 76 243 3.0 5.0 0.00 0.00 0.00 25 985.6
20260505031541 76 286 3.0 5.0 0.00 0.00 0.00 23 985.4
20260505030041 76 246 3.0 4.0 0.00 0.00 0.00 22 985.4
20260505024547 75 265 4.0 7.0 0.00 0.00 0.00 24 985.5
20260505023037 75 259 4.0 8.0 0.00 0.00 0.00 25 985.4
20260505021537 76 247 7.0 11.0 0.00 0.00 0.00 23 985.4
20260505020036 75 223 7.0 10.0 0.00 0.00 0.00 26 985.2